Location: Long Island Community Building
(39.9491°N, 99.5338°W)
Time: 04:39:09
(UTC+00:00)

Cosmos 2237 Rocket - Pass Details

Date: 06 December 2019
Orbit: 836 x 849 km, 71.0° (Epoch: 21 January)

Event Time Altitude Azimuth Distance (km) Brightness Sun altitude
Rises 23:32:22 0° 165° (SSE) 3,395 5.5 -4.1°
Reaches altitude 10° 23:35:17 10° 151° (SSE) 2,465 4.6 -4.6°
Maximum altitude 23:39:36 23° 101° (E) 1,736 3.4 -5.4°
Drops below altitude 10° 23:43:56 10° 51° (NE) 2,477 4.0 -6.1°
Enters shadow 23:45:19 - 43° (NE) 2,903 4.4 -6.4°
